| time (UTC) | temp F | wind direction | speed knots | gust knots | rain 1hr in | rain 24hr in | rain mn in | humidity % | barometer mb |
| 20260502163309 | 81 | 351 | 0.0 | 3.5 | 0.00 | 0.00 | 0.00 | 38 | 1015.1 |
| 20260502160808 | 78 | 92 | 0.0 | 4.3 | 0.00 | 0.00 | 0.00 | 47 | 1015.5 |
| 20260502151809 | 75 | 78 | 0.0 | 1.7 | 0.00 | 0.00 | 0.00 | 52 | 1016.5 |
| 20260502150808 | 73 | 12 | 0.0 | 0.9 | 0.00 | 0.00 | 0.00 | 56 | 1016.4 |
| 20260502123809 | 92 | 253 | 6.1 | 7.8 | 0.00 | 0.00 | 0.00 | 23 | 1017.7 |
| 20260502122309 | 92 | 243 | 4.3 | 8.7 | 0.00 | 0.00 | 0.00 | 22 | 1017.9 |
| 20260502120809 | 87 | 246 | 3.5 | 9.6 | 0.00 | 0.00 | 0.00 | 28 | 1018.1 |
| 20260502115810 | 84 | 198 | 5.2 | 7.0 | 0.00 | 0.00 | 0.00 | 30 | 1018.3 |
| 20260502113809 | 84 | 199 | 4.3 | 9.6 | 0.00 | 0.00 | 0.00 | 30 | 1018.5 |
| 20260502113310 | 83 | 220 | 4.3 | 10.4 | 0.00 | 0.00 | 0.00 | 32 | 1018.6 |
| 20260502110809 | 83 | 161 | 2.6 | 10.4 | 0.00 | 0.00 | 0.00 | 31 | 1018.9 |
| 20260502104310 | 82 | 143 | 5.2 | 13.0 | 0.00 | 0.00 | 0.00 | 31 | 1019.2 |
| 20260502103809 | 82 | 180 | 7.0 | 8.7 | 0.00 | 0.00 | 0.00 | 31 | 1019.2 |
| 20260502101810 | 82 | 195 | 6.1 | 8.7 | 0.00 | 0.00 | 0.00 | 32 | 1019.3 |
| 20260502100809 | 80 | 222 | 6.1 | 7.0 | 0.00 | 0.00 | 0.00 | 33 | 1019.4 |
| 20260502090809 | 73 | 202 | 6.1 | 9.6 | 0.00 | 0.00 | 0.00 | 38 | 1020.0 |
| 20260502090310 | 73 | 161 | 5.2 | 10.4 | 0.00 | 0.00 | 0.00 | 37 | 1019.9 |
| 20260502070809 | 66 | 129 | 7.0 | 14.8 | 0.00 | 0.00 | 0.00 | 41 | 1019.9 |
| 20260502065810 | 65 | 161 | 9.6 | 13.9 | 0.00 | 0.00 | 0.00 | 43 | 1020.0 |
| 20260502063809 | 65 | 136 | 4.3 | 14.8 | 0.00 | 0.00 | 0.00 | 44 | 1020.0 |
| 20260502063310 | 64 | 144 | 10.4 | 14.8 | 0.00 | 0.00 | 0.00 | 45 | 1019.9 |
| 20260502060809 | 62 | 101 | 11.3 | 13.0 | 0.00 | 0.00 | 0.00 | 46 | 1019.7 |
| 20260502054310 | 61 | 154 | 7.0 | 13.9 | 0.00 | 0.00 | 0.00 | 48 | 1020.1 |
| 20260502053809 | 61 | 147 | 10.4 | 12.2 | 0.00 | 0.00 | 0.00 | 48 | 1020.1 |
| 20260502051810 | 59 | 118 | 7.8 | 12.2 | 0.00 | 0.00 | 0.00 | 50 | 1019.8 |
| 20260502050809 | 59 | 123 | 7.8 | 13.0 | 0.00 | 0.00 | 0.00 | 51 | 1019.8 |
| 20260502045310 | 58 | 133 | 7.8 | 13.0 | 0.00 | 0.00 | 0.00 | 52 | 1019.9 |
| 20260502043810 | 58 | 140 | 7.8 | 11.3 | 0.00 | 0.00 | 0.00 | 53 | 1019.8 |
| 20260502042810 | 58 | 149 | 7.8 | 13.0 | 0.00 | 0.00 | 0.00 | 53 | 1019.9 |
| 20260502040810 | 57 | 108 | 8.7 | 11.3 | 0.00 | 0.00 | 0.00 | 54 | 1019.9 |
| 20260502033810 | 57 | 170 | 7.0 | 12.2 | 0.00 | 0.00 | 0.00 | 54 | 1020.2 |
| 20260502031310 | 58 | 149 | 9.6 | 11.3 | 0.00 | 0.00 | 0.00 | 53 | 1020.3 |
| 20260502030810 | 58 | 139 | 7.0 | 10.4 | 0.00 | 0.00 | 0.00 | 53 | 1020.3 |
| 20260502024811 | 59 | 81 | 7.0 | 13.0 | 0.00 | 0.00 | 0.00 | 51 | 1020.4 |
| 20260502023810 | 59 | 116 | 4.3 | 13.0 | 0.00 | 0.00 | 0.00 | 51 | 1020.4 |
| 20260502022312 | 59 | 129 | 9.6 | 12.2 | 0.00 | 0.00 | 0.00 | 50 | 1020.5 |
| 20260502020810 | 60 | 127 | 7.8 | 10.4 | 0.00 | 0.00 | 0.00 | 49 | 1020.6 |
| 20260502015843 | 60 | 140 | 10.4 | 11.3 | 0.00 | 0.00 | 0.00 | 48 | 1020.6 |
| 20260502015811 | 60 | 140 | 10.4 | 11.3 | 0.00 | 0.00 | 0.00 | 48 | 1020.6 |
| 20260502013810 | 60 | 101 | 6.1 | 10.4 | 0.00 | 0.00 | 0.00 | 48 | 1020.7 |
| 20260502013311 | 60 | 111 | 7.8 | 10.4 | 0.00 | 0.00 | 0.00 | 48 | 1020.8 |
| 20260502010810 | 60 | 123 | 6.1 | 10.4 | 0.00 | 0.00 | 0.00 | 48 | 1021.1 |
| 20260502004311 | 61 | 125 | 6.1 | 10.4 | 0.00 | 0.00 | 0.00 | 47 | 1021.3 |
| 20260502003810 | 61 | 99 | 5.2 | 10.4 | 0.00 | 0.00 | 0.00 | 47 | 1021.3 |
| 20260502001811 | 61 | 142 | 7.8 | 9.6 | 0.00 | 0.00 | 0.00 | 46 | 1021.6 |
| 20260502000810 | 61 | 113 | 5.2 | 10.4 | 0.00 | 0.00 | 0.00 | 45 | 1021.7 |
| 20260501235311 | 62 | 132 | 5.2 | 10.4 | 0.00 | 0.00 | 0.00 | 44 | 1021.8 |
| 20260501233810 | 62 | 126 | 7.0 | 11.3 | 0.00 | 0.00 | 0.00 | 43 | 1021.9 |
| 20260501232811 | 63 | 132 | 7.0 | 12.2 | 0.00 | 0.00 | 0.00 | 43 | 1022.0 |
| 20260501230810 | 63 | 122 | 8.7 | 13.0 | 0.00 | 0.00 | 0.00 | 42 | 1021.9 |
| 20260501230311 | 63 | 126 | 7.0 | 11.3 | 0.00 | 0.00 | 0.00 | 42 | 1021.7 |
| 20260501223810 | 64 | 133 | 5.2 | 10.4 | 0.00 | 0.00 | 0.00 | 41 | 1022.0 |
| 20260501221312 | 64 | 105 | 7.0 | 9.6 | 0.00 | 0.00 | 0.00 | 40 | 1022.0 |
| 20260501220810 | 64 | 105 | 6.1 | 9.6 | 0.00 | 0.00 | 0.00 | 39 | 1022.1 |
| 20260501214812 | 65 | 126 | 7.0 | 9.6 | 0.00 | 0.00 | 0.00 | 38 | 1022.2 |
| 20260501213810 | 65 | 133 | 6.1 | 7.8 | 0.00 | 0.00 | 0.00 | 38 | 1022.3 |
| 20260501212312 | 65 | 109 | 4.3 | 9.6 | 0.00 | 0.00 | 0.00 | 37 | 1022.3 |
| 20260501210810 | 66 | 92 | 6.1 | 8.7 | 0.00 | 0.00 | 0.00 | 37 | 1022.5 |
| 20260501205811 | 66 | 111 | 4.3 | 9.6 | 0.00 | 0.00 | 0.00 | 36 | 1022.5 |
| 20260501203810 | 66 | 112 | 5.2 | 9.6 | 0.00 | 0.00 | 0.00 | 36 | 1022.6 |
| 20260501203311 | 66 | 94 | 5.2 | 9.6 | 0.00 | 0.00 | 0.00 | 36 | 1022.6 |
| 20260501200810 | 67 | 99 | 6.1 | 8.7 | 0.00 | 0.00 | 0.00 | 35 | 1022.6 |
| 20260501194311 | 68 | 113 | 5.2 | 7.0 | 0.00 | 0.00 | 0.00 | 33 | 1022.6 |
| 20260501193811 | 68 | 111 | 4.3 | 6.1 | 0.00 | 0.00 | 0.00 | 33 | 1022.6 |
| 20260501191811 | 69 | 144 | 1.7 | 7.0 | 0.00 | 0.00 | 0.00 | 31 | 1022.6 |
| 20260501190811 | 70 | 109 | 0.9 | 7.8 | 0.00 | 0.00 | 0.00 | 30 | 1022.5 |
| 20260501185312 | 71 | 105 | 7.0 | 7.8 | 0.00 | 0.00 | 0.00 | 29 | 1022.5 |
| 20260501183811 | 72 | 104 | 2.6 | 8.7 | 0.00 | 0.00 | 0.00 | 27 | 1022.5 |
| 20260501182811 | 72 | 74 | 6.1 | 10.4 | 0.00 | 0.00 | 0.00 | 26 | 1022.5 |
| 20260501180811 | 73 | 137 | 9.6 | 14.8 | 0.00 | 0.00 | 0.00 | 24 | 1022.5 |
| 20260501180311 | 73 | 94 | 10.4 | 14.8 | 0.00 | 0.00 | 0.00 | 24 | 1022.2 |
| 20260501173811 | 74 | 80 | 5.2 | 13.9 | 0.00 | 0.00 | 0.00 | 23 | 1022.3 |
| 20260501171312 | 75 | 88 | 4.3 | 15.6 | 0.00 | 0.00 | 0.00 | 22 | 1022.3 |
| 20260501170811 | 76 | 140 | 7.8 | 13.0 | 0.00 | 0.00 | 0.00 | 22 | 1022.4 |
| 20260501164812 | 76 | 49 | 7.8 | 18.2 | 0.00 | 0.00 | 0.00 | 21 | 1022.6 |
| 20260501163811 | 76 | 19 | 7.8 | 14.8 | 0.00 | 0.00 | 0.00 | 21 | 1022.6 |